Location: Palomar Mountain Lodge
(33.3110°N, 116.8495°W)
Time: 17:17:20
(UTC-07:00)

Cosmos 1500 - Pass Details

Date: 19 May 2017
Orbit: 501 x 525 km, 82.5° (Epoch: 22 September)

Event Time Altitude Azimuth Distance (km) Brightness Sun altitude
Rises 21:41:16 0° 343° (NNW) 2,609 7.8 -21.1°
Maximum altitude 21:46:57 36° 268° (W) 811 4.5 -22.0°
Enters shadow 21:48:15 27° 226° (SW) 989 4.6 -22.2°
